sat.trackr.live / text

‹ back to catalog

STARLINK-36940

NORAD 68027 · 2026-040N

PAYLOAD ACTIVE UNKNOWN

§ Identity

Operator
Country
US
Launch date
2026-03-01
Launch site
AFWTR
Launch vehicle
Mass (kg)
RCS (m²)

Purposes: comms

External: N2YO · Heavens-Above · Gunter

§ Orbital elements

Epoch: 2026-09-19T14:18:07.093152Z

Period
93.91 min
Inclination
97.2854°
Eccentricity
0.0001002
Mean motion
15.33458320 rev/d
Perigee alt
464.8 km
Apogee alt
466.2 km
Semi-major
6,843.6 km
B*
5.0472e-4
RAAN
210.0178°
Arg perigee
90.5260°
Mean anomaly
269.6098°
Rev number
3,118

§ Raw data

STARLINK-369401 68027U 26040N   26262.59591543  .00016261  00000+0  50472-3 0  99902 68027  97.2854 210.0178 0001002  90.5260 269.6098 15.33458320 31181

JSON: /api/v1/satellites/68027 · /tle

For live sub-satellite position, see the globe view (requires WebGL).

§ Visibility from observer

Set your observer location to see the next 7 days of passes ≥ 10°. The values pass through the URL so the page stays shareable.

No JS? Fill the form by hand. The geolocation button needs JavaScript.